Time,TemperatureF,DewpointF,PressureIn,WindDirection,WindDirectionDegrees,WindSpeedMPH,WindSpeedGustMPH,Humidity,HourlyPrecipIn,Conditions,Clouds,dailyrainin,SoftwareType,DateUTC
2013-01-28 00:01:00,19.6,-0.3,30.30,SW,234,5.4,5.4,41,0.00,,---,0.00,VWS V14.01,2013-01-28 05:01:00,
2013-01-28 00:03:00,19.4,-0.4,30.30,SW,235,5.4,5.4,41,0.00,,---,0.00,VWS V14.01,2013-01-28 05:03:00,
2013-01-28 00:08:00,19.8,-0.1,30.30,WSW,246,4.9,4.9,41,0.00,,---,0.00,VWS V14.01,2013-01-28 05:08:00,
2013-01-28 00:13:00,19.9,0.0,30.30,West,272,6.3,7.4,41,0.00,,---,0.00,VWS V14.01,2013-01-28 05:13:00,
2013-01-28 00:18:00,20.1,0.2,30.30,West,266,6.9,7.8,41,0.00,,---,0.00,VWS V14.01,2013-01-28 05:18:00,
2013-01-28 00:23:00,20.3,0.4,30.30,WSW,248,7.4,8.3,41,0.00,,---,0.00,VWS V14.01,2013-01-28 05:23:00,
2013-01-28 00:28:00,20.3,0.4,30.30,WSW,252,5.8,5.8,41,0.00,,---,0.00,VWS V14.01,2013-01-28 05:28:00,
2013-01-28 00:33:00,19.9,0.6,30.30,WSW,247,6.7,6.9,42,0.00,,---,0.00,VWS V14.01,2013-01-28 05:33:00,
2013-01-28 00:38:00,19.9,0.6,30.30,WSW,253,5.4,5.4,42,0.00,,---,0.00,VWS V14.01,2013-01-28 05:38:00,
2013-01-28 00:43:00,20.1,0.7,30.30,West,267,7.8,8.3,42,0.00,,---,0.00,VWS V14.01,2013-01-28 05:43:00,
2013-01-28 00:48:00,20.5,0.5,30.30,West,261,6.3,6.9,41,0.00,,---,0.00,VWS V14.01,2013-01-28 05:48:00,
2013-01-28 00:53:00,20.1,0.7,30.30,West,272,6.9,6.9,42,0.00,,---,0.00,VWS V14.01,2013-01-28 05:53:00,
2013-01-28 00:58:00,19.9,0.6,30.30,WSW,244,6.9,6.9,42,0.00,,---,0.00,VWS V14.01,2013-01-28 05:58:00,
2013-01-28 01:03:00,19.6,0.2,30.30,WSW,242,7.8,7.8,42,0.00,,---,0.00,VWS V14.01,2013-01-28 06:03:00,
2013-01-28 01:08:00,19.6,0.7,30.30,SW,236,4.5,4.5,43,0.00,,---,0.00,VWS V14.01,2013-01-28 06:08:00,
2013-01-28 01:13:00,19.6,0.7,30.30,SW,228,5.8,5.8,43,0.00,,---,0.00,VWS V14.01,2013-01-28 06:13:00,
2013-01-28 01:18:00,19.2,0.4,30.30,SW,232,5.4,6.7,43,0.00,,---,0.00,VWS V14.01,2013-01-28 06:18:00,
2013-01-28 01:23:00,19.4,0.6,30.30,WSW,237,6.7,7.4,43,0.00,,---,0.00,VWS V14.01,2013-01-28 06:23:00,
2013-01-28 01:28:00,19.4,0.6,30.30,SW,235,7.8,7.8,43,0.00,,---,0.00,VWS V14.01,2013-01-28 06:28:00,
2013-01-28 01:33:00,18.9,0.1,30.30,WSW,252,4.0,4.0,43,0.00,,---,0.00,VWS V14.01,2013-01-28 06:33:00,
2013-01-28 01:38:00,18.7,-0.1,30.30,WSW,244,4.9,6.3,43,0.00,,---,0.00,VWS V14.01,2013-01-28 06:38:00,
2013-01-28 01:43:00,18.9,0.1,30.30,West,259,6.9,7.4,43,0.00,,---,0.00,VWS V14.01,2013-01-28 06:43:00,
2013-01-28 01:48:00,19.4,0.6,30.30,West,268,7.8,7.8,43,0.00,,---,0.00,VWS V14.01,2013-01-28 06:48:00,
2013-01-28 01:53:00,19.6,0.7,30.30,West,270,7.4,9.6,43,0.00,,---,0.00,VWS V14.01,2013-01-28 06:53:00,
2013-01-28 01:58:00,19.6,0.7,30.30,West,264,9.2,9.6,43,0.00,,---,0.00,VWS V14.01,2013-01-28 06:58:00,
2013-01-28 02:03:00,19.8,0.9,30.30,West,263,6.7,9.6,43,0.00,,---,0.00,VWS V14.01,2013-01-28 07:03:00,
2013-01-28 02:08:00,19.9,1.1,30.30,West,260,8.3,10.5,43,0.00,,---,0.00,VWS V14.01,2013-01-28 07:08:00,
2013-01-28 02:13:00,20.1,1.2,30.30,West,278,7.4,9.6,43,0.00,,---,0.00,VWS V14.01,2013-01-28 07:13:00,
2013-01-28 02:18:00,20.3,1.4,30.30,West,270,10.1,10.1,43,0.00,,---,0.00,VWS V14.01,2013-01-28 07:18:00,
2013-01-28 02:23:00,20.5,1.0,30.30,West,260,11.2,11.2,42,0.00,,---,0.00,VWS V14.01,2013-01-28 07:23:00,
2013-01-28 02:28:00,20.5,1.0,30.30,West,259,12.1,12.5,42,0.00,,---,0.00,VWS V14.01,2013-01-28 07:28:00,
2013-01-28 02:33:00,20.7,1.2,30.30,West,264,13.4,13.4,42,0.00,,---,0.00,VWS V14.01,2013-01-28 07:33:00,
2013-01-28 02:38:00,20.7,1.2,30.30,West,267,11.0,13.0,42,0.00,,---,0.00,VWS V14.01,2013-01-28 07:38:00,
2013-01-28 02:43:00,20.7,1.2,30.30,West,268,11.2,11.2,42,0.00,,---,0.00,VWS V14.01,2013-01-28 07:43:00,
2013-01-28 02:47:00,20.8,1.4,30.30,West,268,7.8,11.6,42,0.00,,---,0.00,VWS V14.01,2013-01-28 07:47:00,
2013-01-28 02:53:00,20.8,1.4,30.30,WNW,283,10.5,11.0,42,0.00,,---,0.00,VWS V14.01,2013-01-28 07:53:00,
2013-01-28 02:58:00,20.8,0.9,30.27,West,275,9.2,10.5,41,0.00,,---,0.00,VWS V14.01,2013-01-28 07:58:00,
2013-01-28 03:03:00,20.7,0.7,30.27,West,281,7.8,8.7,41,0.00,,---,0.00,VWS V14.01,2013-01-28 08:03:00,
2013-01-28 03:07:00,20.8,0.9,30.27,West,278,7.8,8.7,41,0.00,,---,0.00,VWS V14.01,2013-01-28 08:07:00,
2013-01-28 03:12:00,20.8,0.9,30.27,WNW,287,6.9,7.8,41,0.00,,---,0.00,VWS V14.01,2013-01-28 08:12:00,
2013-01-28 03:17:00,20.8,0.9,30.27,West,270,7.4,8.7,41,0.00,,---,0.00,VWS V14.01,2013-01-28 08:17:00,
2013-01-28 03:22:00,20.7,0.7,30.27,West,273,8.3,8.3,41,0.00,,---,0.00,VWS V14.01,2013-01-28 08:22:00,
2013-01-28 03:27:00,20.5,1.0,30.27,West,276,9.6,9.6,42,0.00,,---,0.00,VWS V14.01,2013-01-28 08:27:00,
2013-01-28 03:32:00,20.5,1.0,30.27,West,273,6.3,7.8,42,0.00,,---,0.00,VWS V14.01,2013-01-28 08:32:00,
2013-01-28 03:37:00,20.3,0.9,30.27,West,277,6.7,7.8,42,0.00,,---,0.00,VWS V14.01,2013-01-28 08:37:00,
2013-01-28 03:42:00,20.5,1.0,30.27,West,274,7.4,9.6,42,0.00,,---,0.00,VWS V14.01,2013-01-28 08:42:00,
2013-01-28 03:47:00,20.5,1.5,30.27,West,270,6.7,8.3,43,0.00,,---,0.00,VWS V14.01,2013-01-28 08:47:00,
2013-01-28 03:52:00,20.7,1.7,30.27,West,272,10.5,11.2,43,0.00,,---,0.00,VWS V14.01,2013-01-28 08:52:00,
2013-01-28 03:57:00,20.7,1.7,30.27,WSW,255,9.6,9.6,43,0.00,,---,0.00,VWS V14.01,2013-01-28 08:57:00,
2013-01-28 04:02:00,20.7,1.7,30.27,West,279,7.4,8.3,43,0.00,,---,0.00,VWS V14.01,2013-01-28 09:02:00,
2013-01-28 04:07:00,20.5,1.5,30.27,West,274,7.4,7.4,43,0.00,,---,0.00,VWS V14.01,2013-01-28 09:07:00,
2013-01-28 04:12:00,20.7,1.7,30.27,WNW,289,6.7,8.3,43,0.00,,---,0.00,VWS V14.01,2013-01-28 09:12:00,
2013-01-28 04:17:00,20.8,1.9,30.27,WNW,292,6.7,9.2,43,0.00,,---,0.00,VWS V14.01,2013-01-28 09:17:00,
2013-01-28 04:22:00,20.8,1.9,30.27,WNW,290,9.2,10.5,43,0.00,,---,0.00,VWS V14.01,2013-01-28 09:22:00,
2013-01-28 04:27:00,21.0,2.0,30.27,West,274,10.5,10.5,43,0.00,,---,0.00,VWS V14.01,2013-01-28 09:27:00,
2013-01-28 04:32:00,21.0,2.0,30.27,West,276,9.2,10.5,43,0.00,,---,0.00,VWS V14.01,2013-01-28 09:32:00,
2013-01-28 04:37:00,21.0,2.0,30.27,West,273,7.4,8.7,43,0.00,,---,0.00,VWS V14.01,2013-01-28 09:37:00,
2013-01-28 04:42:00,21.0,2.0,30.27,West,275,7.4,8.7,43,0.00,,---,0.00,VWS V14.01,2013-01-28 09:42:00,
2013-01-28 04:47:00,21.2,2.2,30.27,West,276,7.4,9.2,43,0.00,,---,0.00,VWS V14.01,2013-01-28 09:47:00,
2013-01-28 04:52:00,21.2,2.2,30.27,West,277,8.7,9.6,43,0.00,,---,0.00,VWS V14.01,2013-01-28 09:52:00,
2013-01-28 04:57:00,21.2,2.2,30.27,West,272,6.7,8.7,43,0.00,,---,0.00,VWS V14.01,2013-01-28 09:57:00,
2013-01-28 05:02:00,21.0,2.0,30.27,WSW,255,9.2,9.6,43,0.00,,---,0.00,VWS V14.01,2013-01-28 10:02:00,
2013-01-28 05:07:00,21.0,2.0,30.27,West,267,9.6,9.6,43,0.00,,---,0.00,VWS V14.01,2013-01-28 10:07:00,
2013-01-28 05:12:00,20.8,1.9,30.27,West,261,5.4,6.9,43,0.00,,---,0.00,VWS V14.01,2013-01-28 10:12:00,
2013-01-28 05:17:00,20.7,1.2,30.27,West,263,7.4,8.7,42,0.00,,---,0.00,VWS V14.01,2013-01-28 10:17:00,
2013-01-28 05:22:00,20.5,1.0,30.27,WNW,283,6.7,7.4,42,0.00,,---,0.00,VWS V14.01,2013-01-28 10:22:00,
2013-01-28 05:27:00,20.5,1.0,30.27,West,271,5.8,7.4,42,0.00,,---,0.00,VWS V14.01,2013-01-28 10:27:00,
2013-01-28 05:32:00,20.5,1.0,30.27,WSW,250,6.9,7.4,42,0.00,,---,0.00,VWS V14.01,2013-01-28 10:32:00,
2013-01-28 05:37:00,20.8,1.4,30.27,West,268,7.4,8.7,42,0.00,,---,0.00,VWS V14.01,2013-01-28 10:37:00,
2013-01-28 05:42:00,20.8,1.4,30.27,West,264,6.7,9.2,42,0.00,,---,0.00,VWS V14.01,2013-01-28 10:42:00,
2013-01-28 05:47:00,20.8,1.4,30.27,West,267,7.8,8.3,42,0.00,,---,0.00,VWS V14.01,2013-01-28 10:47:00,
2013-01-28 05:52:00,21.4,2.4,30.27,West,263,3.6,6.7,43,0.00,,---,0.00,VWS V14.01,2013-01-28 10:52:00,
2013-01-28 05:57:00,20.7,1.2,30.27,West,264,4.9,4.9,42,0.00,,---,0.00,VWS V14.01,2013-01-28 10:57:00,
2013-01-28 06:02:00,20.3,1.4,30.27,West,261,3.6,5.4,43,0.00,,---,0.00,VWS V14.01,2013-01-28 11:02:00,
2013-01-28 06:07:00,19.9,1.1,30.27,West,261,4.5,4.9,43,0.00,,---,0.00,VWS V14.01,2013-01-28 11:07:00,
2013-01-28 06:12:00,19.0,0.2,30.27,West,260,4.0,4.9,43,0.00,,---,0.00,VWS V14.01,2013-01-28 11:12:00,
2013-01-28 06:17:00,18.0,-0.3,30.27,SW,221,4.5,4.9,44,0.00,,---,0.00,VWS V14.01,2013-01-28 11:17:00,
2013-01-28 06:22:00,17.4,-0.8,30.27,SW,222,3.6,4.5,44,0.00,,---,0.00,VWS V14.01,2013-01-28 11:22:00,
2013-01-28 06:27:00,17.4,-0.8,30.27,SW,221,3.6,4.5,44,0.00,,---,0.00,VWS V14.01,2013-01-28 11:27:00,
2013-01-28 06:32:00,17.4,-0.8,30.27,SW,222,2.7,3.6,44,0.00,,---,0.00,VWS V14.01,2013-01-28 11:32:00,
2013-01-28 06:37:00,17.4,-0.8,30.27,SW,221,0.0,0.0,44,0.00,,---,0.00,VWS V14.01,2013-01-28 11:37:00,
2013-01-28 06:42:00,17.1,-0.6,30.27,SW,221,0.0,0.0,45,0.00,,---,0.00,VWS V14.01,2013-01-28 11:42:00,
2013-01-28 06:47:00,16.9,-0.8,30.27,SW,222,0.0,0.0,45,0.00,,---,0.00,VWS V14.01,2013-01-28 11:47:00,
2013-01-28 06:52:00,16.7,-0.9,30.27,SW,222,0.0,0.0,45,0.00,,---,0.00,VWS V14.01,2013-01-28 11:52:00,
2013-01-28 06:57:00,16.7,-0.9,30.27,SW,221,0.0,0.0,45,0.00,,---,0.00,VWS V14.01,2013-01-28 11:57:00,
2013-01-28 07:02:00,16.9,-0.8,30.27,SW,222,0.0,0.0,45,0.00,,---,0.00,VWS V14.01,2013-01-28 12:02:00,
2013-01-28 07:07:00,16.9,-0.8,30.27,SW,221,0.0,0.0,45,0.00,,---,0.00,VWS V14.01,2013-01-28 12:07:00,
2013-01-28 07:12:00,17.2,-0.4,30.27,SW,222,4.5,4.5,45,0.00,,---,0.00,VWS V14.01,2013-01-28 12:12:00,
2013-01-28 07:17:00,17.4,0.2,30.27,SW,220,3.1,3.6,46,0.00,,---,0.00,VWS V14.01,2013-01-28 12:17:00,
2013-01-28 07:22:00,17.4,-0.3,30.27,SW,220,3.6,3.6,45,0.00,,---,0.00,VWS V14.01,2013-01-28 12:22:00,
2013-01-28 07:27:00,18.0,0.2,30.27,SW,221,4.0,4.9,45,0.00,,---,0.00,VWS V14.01,2013-01-28 12:27:00,
2013-01-28 07:32:00,18.1,0.4,30.27,SW,221,3.6,3.6,45,0.00,,---,0.00,VWS V14.01,2013-01-28 12:32:00,
2013-01-28 07:37:00,18.5,0.7,30.27,SSW,209,5.8,6.3,45,0.00,,---,0.00,VWS V14.01,2013-01-28 12:37:00,
2013-01-28 07:42:00,19.4,1.5,30.27,SW,215,3.6,4.5,45,0.00,,---,0.00,VWS V14.01,2013-01-28 12:42:00,
2013-01-28 07:47:00,20.1,2.2,30.27,SW,225,3.6,4.9,45,0.00,,---,0.00,VWS V14.01,2013-01-28 12:47:00,
2013-01-28 07:52:00,20.3,1.9,30.27,SW,225,0.0,2.7,44,0.00,,---,0.00,VWS V14.01,2013-01-28 12:52:00,
2013-01-28 07:57:00,20.7,2.2,30.27,SW,225,2.7,3.6,44,0.00,,---,0.00,VWS V14.01,2013-01-28 12:57:00,
2013-01-28 08:02:00,21.2,2.7,30.27,SW,225,4.0,4.0,44,0.00,,---,0.00,VWS V14.01,2013-01-28 13:02:00,
2013-01-28 08:07:00,21.6,3.0,30.27,SW,225,0.0,0.0,44,0.00,,---,0.00,VWS V14.01,2013-01-28 13:07:00,
2013-01-28 08:12:00,22.3,3.2,30.27,SW,225,0.0,3.1,43,0.00,,---,0.00,VWS V14.01,2013-01-28 13:12:00,
2013-01-28 08:17:00,23.0,3.8,30.27,SW,225,0.0,0.0,43,0.00,,---,0.00,VWS V14.01,2013-01-28 13:17:00,
2013-01-28 08:22:00,23.2,4.0,30.27,SW,225,4.0,4.5,43,0.00,,---,0.00,VWS V14.01,2013-01-28 13:22:00,
2013-01-28 08:27:00,23.9,4.7,30.27,WSW,245,4.5,4.9,43,0.00,,---,0.00,VWS V14.01,2013-01-28 13:27:00,
2013-01-28 08:32:00,24.3,4.5,30.27,West,259,4.5,4.9,42,0.00,,---,0.00,VWS V14.01,2013-01-28 13:32:00,
2013-01-28 08:37:00,24.6,4.8,30.27,West,275,4.5,6.3,42,0.00,,---,0.00,VWS V14.01,2013-01-28 13:37:00,
2013-01-28 08:42:00,24.6,4.8,30.27,West,271,6.3,6.3,42,0.00,,---,0.00,VWS V14.01,2013-01-28 13:42:00,
2013-01-28 08:47:00,25.2,4.8,30.27,West,268,4.5,4.9,41,0.00,,---,0.00,VWS V14.01,2013-01-28 13:47:00,
2013-01-28 08:52:00,25.5,5.1,30.27,West,269,3.6,3.6,41,0.00,,---,0.00,VWS V14.01,2013-01-28 13:52:00,
2013-01-28 08:57:00,25.9,5.4,30.27,SW,235,5.4,5.4,41,0.00,,---,0.00,VWS V14.01,2013-01-28 13:57:00,
2013-01-28 09:02:00,26.2,4.7,30.27,WSW,248,4.5,4.5,39,0.00,,---,0.00,VWS V14.01,2013-01-28 14:02:00,
2013-01-28 09:07:00,26.2,4.7,30.27,SW,230,5.4,5.4,39,0.00,,---,0.00,VWS V14.01,2013-01-28 14:07:00,
2013-01-28 09:12:00,26.2,4.7,30.27,SW,236,3.6,4.0,39,0.00,,---,0.00,VWS V14.01,2013-01-28 14:12:00,
2013-01-28 09:17:00,26.6,5.0,30.27,SW,236,3.1,3.6,39,0.00,,---,0.00,VWS V14.01,2013-01-28 14:17:00,
2013-01-28 09:22:00,27.0,4.8,30.27,SW,225,4.0,4.9,38,0.00,,---,0.00,VWS V14.01,2013-01-28 14:22:00,
2013-01-28 09:27:00,26.8,4.0,30.27,SW,224,0.0,0.0,37,0.00,,---,0.00,VWS V14.01,2013-01-28 14:27:00,
2013-01-28 09:32:00,27.1,4.9,30.27,SW,225,3.6,3.6,38,0.00,,---,0.00,VWS V14.01,2013-01-28 14:32:00,
2013-01-28 09:37:00,27.3,5.1,30.27,SW,218,5.4,5.4,38,0.00,,---,0.00,VWS V14.01,2013-01-28 14:37:00,
2013-01-28 09:42:00,27.7,4.8,30.27,SW,217,4.9,4.9,37,0.00,,---,0.00,VWS V14.01,2013-01-28 14:42:00,
2013-01-28 09:47:00,28.6,5.0,30.27,SW,227,3.1,3.1,36,0.00,,---,0.00,VWS V14.01,2013-01-28 14:47:00,
2013-01-28 09:52:00,28.9,5.3,30.27,SW,232,4.0,4.0,36,0.00,,---,0.00,VWS V14.01,2013-01-28 14:52:00,
2013-01-28 09:57:00,28.9,4.7,30.27,WSW,247,3.6,4.9,35,0.00,,---,0.00,VWS V14.01,2013-01-28 14:57:00,
2013-01-28 10:02:00,29.8,5.5,30.27,SW,225,4.0,4.0,35,0.00,,---,0.00,VWS V14.01,2013-01-28 15:02:00,
2013-01-28 10:07:00,29.7,4.7,30.27,SW,223,5.4,5.4,34,0.00,,---,0.00,VWS V14.01,2013-01-28 15:07:00,
2013-01-28 10:12:00,29.3,4.4,30.27,SW,229,6.7,6.7,34,0.00,,---,0.00,VWS V14.01,2013-01-28 15:12:00,
2013-01-28 10:17:00,29.7,3.4,30.27,SW,214,4.5,4.5,32,0.00,,---,0.00,VWS V14.01,2013-01-28 15:17:00,
2013-01-28 10:22:00,29.8,3.6,30.27,SW,222,6.3,6.3,32,0.00,,---,0.00,VWS V14.01,2013-01-28 15:22:00,
2013-01-28 10:27:00,30.0,3.8,30.27,WSW,248,4.9,4.9,32,0.00,,---,0.00,VWS V14.01,2013-01-28 15:27:00,
2013-01-28 10:32:00,30.0,3.8,30.27,SW,226,4.0,4.5,32,0.00,,---,0.00,VWS V14.01,2013-01-28 15:32:00,
2013-01-28 10:37:00,30.2,3.9,30.27,SW,222,5.4,5.4,32,0.00,,---,0.00,VWS V14.01,2013-01-28 15:37:00,
2013-01-28 10:42:00,30.6,4.2,30.24,West,262,3.6,4.5,32,0.00,,---,0.00,VWS V14.01,2013-01-28 15:42:00,
2013-01-28 10:47:00,31.3,4.2,30.24,WNW,291,4.5,4.9,31,0.00,,---,0.00,VWS V14.01,2013-01-28 15:47:00,
2013-01-28 10:52:00,31.1,4.0,30.24,West,273,3.6,3.6,31,0.00,,---,0.00,VWS V14.01,2013-01-28 15:52:00,
2013-01-28 10:57:00,31.5,4.3,30.24,SW,224,4.5,6.7,31,0.00,,---,0.00,VWS V14.01,2013-01-28 15:57:00,
2013-01-28 11:02:00,31.6,4.5,30.24,SSW,209,6.3,6.3,31,0.00,,---,0.00,VWS V14.01,2013-01-28 16:02:00,
2013-01-28 11:07:00,31.5,4.3,30.24,SW,221,5.4,6.7,31,0.00,,---,0.00,VWS V14.01,2013-01-28 16:07:00,
2013-01-28 11:12:00,31.3,4.2,30.24,WSW,241,6.3,6.9,31,0.00,,---,0.00,VWS V14.01,2013-01-28 16:12:00,
2013-01-28 11:17:00,31.1,4.0,30.24,SW,235,4.9,5.4,31,0.00,,---,0.00,VWS V14.01,2013-01-28 16:17:00,
2013-01-28 11:22:00,31.1,4.0,30.24,SW,231,4.9,5.4,31,0.00,,---,0.00,VWS V14.01,2013-01-28 16:22:00,
2013-01-28 11:27:00,32.5,5.3,30.21,SSW,209,5.4,5.4,31,0.00,,---,0.00,VWS V14.01,2013-01-28 16:27:00,
2013-01-28 11:32:00,33.4,6.1,30.21,SSW,208,0.0,4.5,31,0.00,,---,0.00,VWS V14.01,2013-01-28 16:32:00,
2013-01-28 11:37:00,33.8,6.4,30.21,South,175,4.9,6.7,31,0.00,,---,0.00,VWS V14.01,2013-01-28 16:37:00,
2013-01-28 11:42:00,34.7,7.9,30.21,SSE,164,3.1,4.0,32,0.00,,---,0.00,VWS V14.01,2013-01-28 16:42:00,
2013-01-28 11:47:00,34.5,7.7,30.21,SSE,162,3.1,5.4,32,0.00,,---,0.00,VWS V14.01,2013-01-28 16:47:00,
2013-01-28 11:52:00,34.3,7.6,30.21,SSW,204,5.4,6.7,32,0.00,,---,0.00,VWS V14.01,2013-01-28 16:52:00,
2013-01-28 11:57:00,34.2,7.4,30.21,South,173,6.7,8.3,32,0.00,,---,0.00,VWS V14.01,2013-01-28 16:57:00,
2013-01-28 12:01:00,34.2,7.4,30.21,SSE,155,3.6,5.8,32,0.00,,---,0.00,VWS V14.01,2013-01-28 17:01:00,
2013-01-28 12:06:00,34.2,7.4,30.21,SSE,162,3.6,5.8,32,0.00,,---,0.00,VWS V14.01,2013-01-28 17:06:00,
2013-01-28 12:11:00,34.2,7.4,30.18,South,180,4.9,6.9,32,0.00,,---,0.00,VWS V14.01,2013-01-28 17:11:00,
2013-01-28 12:16:00,33.8,7.1,30.18,SSE,166,7.4,7.4,32,0.00,,---,0.00,VWS V14.01,2013-01-28 17:16:00,
2013-01-28 12:21:00,33.4,6.8,30.18,South,182,6.7,7.8,32,0.00,,---,0.00,VWS V14.01,2013-01-28 17:21:00,
2013-01-28 12:26:00,33.4,6.1,30.18,SSE,168,7.4,8.3,31,0.00,,---,0.00,VWS V14.01,2013-01-28 17:26:00,
2013-01-28 12:31:00,33.4,6.1,30.18,South,170,6.9,6.9,31,0.00,,---,0.00,VWS V14.01,2013-01-28 17:31:00,
2013-01-28 12:36:00,33.6,6.9,30.18,SSE,160,6.3,6.7,32,0.00,,---,0.00,VWS V14.01,2013-01-28 17:36:00,
2013-01-28 12:41:00,33.8,7.1,30.15,SE,124,5.8,6.9,32,0.00,,---,0.00,VWS V14.01,2013-01-28 17:41:00,
2013-01-28 12:46:00,33.8,7.1,30.15,SE,128,4.5,5.4,32,0.00,,---,0.00,VWS V14.01,2013-01-28 17:46:00,
2013-01-28 12:51:00,34.2,8.1,30.15,SSE,156,6.9,6.9,33,0.00,,---,0.00,VWS V14.01,2013-01-28 17:51:00,
2013-01-28 12:56:00,34.2,8.1,30.15,SE,133,5.8,5.8,33,0.00,,---,0.00,VWS V14.01,2013-01-28 17:56:00,
2013-01-28 13:01:00,34.0,8.6,30.15,SSE,150,5.4,5.4,34,0.00,,---,0.00,VWS V14.01,2013-01-28 18:01:00,
2013-01-28 13:06:00,34.0,9.2,30.15,South,184,5.8,6.3,35,0.00,,---,0.00,VWS V14.01,2013-01-28 18:06:00,
2013-01-28 13:11:00,33.8,9.7,30.15,SSE,166,4.0,4.9,36,0.00,,---,0.00,VWS V14.01,2013-01-28 18:11:00,
2013-01-28 13:16:00,34.0,9.9,30.15,SE,146,5.8,6.7,36,0.00,,---,0.00,VWS V14.01,2013-01-28 18:16:00,
2013-01-28 13:21:00,33.8,10.3,30.15,SSE,151,6.7,7.4,37,0.00,,---,0.00,VWS V14.01,2013-01-28 18:21:00,
2013-01-28 13:26:00,34.0,11.1,30.15,SSE,147,4.9,6.7,38,0.00,,---,0.00,VWS V14.01,2013-01-28 18:26:00,
2013-01-28 13:31:00,34.0,11.6,30.15,South,170,4.5,4.5,39,0.00,,---,0.00,VWS V14.01,2013-01-28 18:31:00,
2013-01-28 13:36:00,33.8,11.5,30.15,South,170,3.6,3.6,39,0.00,,---,0.00,VWS V14.01,2013-01-28 18:36:00,
2013-01-28 13:41:00,33.6,11.9,30.12,SE,124,4.0,6.3,40,0.00,,---,0.00,VWS V14.01,2013-01-28 18:41:00,
2013-01-28 13:46:00,33.8,12.1,30.12,SSE,157,6.9,6.9,40,0.00,,---,0.00,VWS V14.01,2013-01-28 18:46:00,
2013-01-28 13:51:00,34.0,12.2,30.12,South,179,5.4,6.7,40,0.00,,---,0.00,VWS V14.01,2013-01-28 18:51:00,
2013-01-28 13:56:00,34.3,12.5,30.12,SSE,151,4.0,4.9,40,0.00,,---,0.00,VWS V14.01,2013-01-28 18:56:00,
2013-01-28 14:01:00,34.0,12.2,30.12,SE,145,5.4,6.3,40,0.00,,---,0.00,VWS V14.01,2013-01-28 19:01:00,
2013-01-28 14:06:00,33.6,11.9,30.12,SSE,157,6.7,6.7,40,0.00,,---,0.00,VWS V14.01,2013-01-28 19:06:00,
2013-01-28 14:11:00,33.6,11.9,30.12,ESE,117,4.5,4.9,40,0.00,,---,0.00,VWS V14.01,2013-01-28 19:11:00,
2013-01-28 14:16:00,33.4,11.7,30.12,ESE,120,4.0,4.5,40,0.00,,---,0.00,VWS V14.01,2013-01-28 19:16:00,
2013-01-28 14:21:00,32.9,11.8,30.12,East,95,4.9,5.8,41,0.00,,---,0.00,VWS V14.01,2013-01-28 19:21:00,
2013-01-28 14:26:00,33.1,12.0,30.09,ESE,114,2.7,5.4,41,0.00,,---,0.00,VWS V14.01,2013-01-28 19:26:00,
2013-01-28 14:31:00,33.1,12.0,30.09,East,93,4.5,4.5,41,0.00,,---,0.00,VWS V14.01,2013-01-28 19:31:00,
2013-01-28 14:36:00,33.1,12.0,30.09,ESE,105,5.4,5.8,41,0.00,,---,0.00,VWS V14.01,2013-01-28 19:36:00,
2013-01-28 14:41:00,32.9,11.8,30.09,SE,145,5.4,5.8,41,0.00,,---,0.00,VWS V14.01,2013-01-28 19:41:00,
2013-01-28 14:46:00,32.9,12.3,30.09,ESE,102,4.0,4.0,42,0.00,,---,0.00,VWS V14.01,2013-01-28 19:46:00,
2013-01-28 14:51:00,33.1,12.5,30.09,SE,135,4.5,4.5,42,0.00,,---,0.00,VWS V14.01,2013-01-28 19:51:00,
2013-01-28 14:56:00,32.7,12.2,30.09,SSE,148,7.8,7.8,42,0.00,,---,0.00,VWS V14.01,2013-01-28 19:56:00,
2013-01-28 15:01:00,32.5,12.5,30.09,ESE,120,5.8,6.9,43,0.00,,---,0.00,VWS V14.01,2013-01-28 20:01:00,
2013-01-28 15:06:00,32.4,12.4,30.09,SE,143,6.3,6.9,43,0.00,,---,0.00,VWS V14.01,2013-01-28 20:06:00,
2013-01-28 15:11:00,32.0,12.6,30.09,SE,142,4.9,5.8,44,0.00,,---,0.00,VWS V14.01,2013-01-28 20:11:00,
2013-01-28 15:16:00,31.8,12.4,30.09,ESE,119,5.8,6.3,44,0.00,,---,0.00,VWS V14.01,2013-01-28 20:16:00,
2013-01-28 15:21:00,31.5,12.6,30.09,ESE,114,5.4,5.4,45,0.00,,---,0.00,VWS V14.01,2013-01-28 20:21:00,
2013-01-28 15:26:00,31.5,12.6,30.06,SE,127,4.9,6.3,45,0.00,,---,0.00,VWS V14.01,2013-01-28 20:26:00,
2013-01-28 15:31:00,31.3,12.9,30.06,ESE,106,4.9,4.9,46,0.00,,---,0.00,VWS V14.01,2013-01-28 20:31:00,
2013-01-28 15:36:00,31.3,13.4,30.06,ESE,109,3.1,4.9,47,0.00,,---,0.00,VWS V14.01,2013-01-28 20:36:00,
2013-01-28 15:41:00,31.1,13.7,30.06,SE,125,5.4,5.4,48,0.00,,---,0.00,VWS V14.01,2013-01-28 20:41:00,
2013-01-28 15:46:00,31.1,14.2,30.06,SE,146,4.5,6.3,49,0.00,,---,0.00,VWS V14.01,2013-01-28 20:46:00,
2013-01-28 15:51:00,30.9,14.9,30.06,East,94,4.9,6.7,51,0.00,,---,0.00,VWS V14.01,2013-01-28 20:51:00,
2013-01-28 15:56:00,30.6,15.5,30.03,ESE,116,5.8,8.7,53,0.00,,---,0.00,VWS V14.01,2013-01-28 20:56:00,
2013-01-28 16:01:00,30.4,16.6,30.03,ESE,109,4.9,6.7,56,0.00,,---,0.00,VWS V14.01,2013-01-28 21:01:00,
2013-01-28 16:06:00,30.2,17.2,30.03,ESE,115,5.8,6.3,58,0.00,,---,0.00,VWS V14.01,2013-01-28 21:06:00,
2013-01-28 16:11:00,30.0,17.8,30.03,East,97,6.7,6.9,60,0.00,,---,0.00,VWS V14.01,2013-01-28 21:11:00,
2013-01-28 16:16:00,29.8,18.4,30.03,East,92,5.4,6.3,62,0.00,,---,0.00,VWS V14.01,2013-01-28 21:16:00,
2013-01-28 16:21:00,30.0,19.3,30.03,ENE,66,5.4,5.4,64,0.00,,---,0.00,VWS V14.01,2013-01-28 21:21:00,
2013-01-28 16:26:00,29.8,19.9,30.03,East,81,6.3,7.4,66,0.00,,---,0.00,VWS V14.01,2013-01-28 21:26:00,
2013-01-28 16:31:00,29.8,20.6,30.03,East,85,4.5,4.5,68,0.00,,---,0.00,VWS V14.01,2013-01-28 21:31:00,
2013-01-28 16:36:00,29.3,20.4,30.03,NE,47,4.9,5.8,69,0.00,,---,0.00,VWS V14.01,2013-01-28 21:36:00,
2013-01-28 16:41:00,28.8,20.6,30.03,NE,53,4.5,5.4,71,0.00,,---,0.00,VWS V14.01,2013-01-28 21:41:00,
2013-01-28 16:46:00,28.8,21.5,30.03,NE,42,4.9,4.9,74,0.00,,---,0.00,VWS V14.01,2013-01-28 21:46:00,
2013-01-28 16:51:00,28.6,21.7,30.03,NE,42,3.6,4.0,75,0.00,,---,0.00,VWS V14.01,2013-01-28 21:51:00,
2013-01-28 16:56:00,28.4,22.4,30.03,NE,43,5.4,5.4,78,0.00,,---,0.00,VWS V14.01,2013-01-28 21:56:00,
2013-01-28 17:01:00,28.4,22.7,30.03,NE,56,6.3,6.7,79,0.00,,---,0.00,VWS V14.01,2013-01-28 22:01:00,
2013-01-28 17:06:00,28.2,22.9,30.03,NNE,33,4.5,5.4,80,0.00,,---,0.00,VWS V14.01,2013-01-28 22:06:00,
2013-01-28 17:11:00,28.0,23.0,30.03,NNE,20,6.3,6.9,81,0.00,,---,0.00,VWS V14.01,2013-01-28 22:11:00,
2013-01-28 17:16:00,28.0,23.3,30.03,NNE,19,6.3,7.4,82,0.00,,---,0.00,VWS V14.01,2013-01-28 22:16:00,
2013-01-28 17:21:00,28.0,23.5,30.03,NE,37,4.5,4.9,83,0.00,,---,0.00,VWS V14.01,2013-01-28 22:21:00,
2013-01-28 17:26:00,28.0,24.1,30.03,NE,44,5.8,5.8,85,0.00,,---,0.00,VWS V14.01,2013-01-28 22:26:00,
2013-01-28 17:31:00,28.0,24.7,30.03,NE,45,4.9,5.8,87,0.00,,---,0.00,VWS V14.01,2013-01-28 22:31:00,
2013-01-28 17:36:00,28.0,25.2,30.03,NE,35,6.3,6.3,89,0.00,,---,0.00,VWS V14.01,2013-01-28 22:36:00,
2013-01-28 17:41:00,28.0,25.5,30.00,ENE,62,4.0,4.9,90,0.00,,---,0.00,VWS V14.01,2013-01-28 22:41:00,
2013-01-28 17:46:00,28.2,25.9,30.00,NE,52,6.3,6.7,91,0.00,,---,0.00,VWS V14.01,2013-01-28 22:46:00,
2013-01-28 17:51:00,28.2,26.2,30.00,NE,53,5.4,5.4,92,0.00,,---,0.00,VWS V14.01,2013-01-28 22:51:00,
2013-01-28 17:56:00,28.4,26.6,30.00,ENE,63,5.8,5.8,93,0.00,,---,0.00,VWS V14.01,2013-01-28 22:56:00,
2013-01-28 18:01:00,28.4,26.9,30.00,NE,45,5.4,5.4,94,0.00,,---,0.00,VWS V14.01,2013-01-28 23:01:00,
2013-01-28 18:06:00,28.6,27.3,30.00,NE,56,3.6,4.0,95,0.00,,---,0.00,VWS V14.01,2013-01-28 23:06:00,
2013-01-28 18:11:00,28.8,27.5,30.00,East,88,5.8,6.9,95,0.00,,---,0.00,VWS V14.01,2013-01-28 23:11:00,
2013-01-28 18:16:00,28.8,27.8,30.00,East,86,5.8,6.3,96,0.00,,---,0.00,VWS V14.01,2013-01-28 23:16:00,
2013-01-28 18:21:00,28.9,27.9,30.00,ENE,72,6.9,7.4,96,0.00,,---,0.00,VWS V14.01,2013-01-28 23:21:00,
2013-01-28 18:26:00,29.1,28.1,29.97,ENE,78,7.8,7.8,96,0.00,,---,0.00,VWS V14.01,2013-01-28 23:26:00,
2013-01-28 18:31:00,29.3,28.3,29.97,ENE,75,6.3,6.7,96,0.00,,---,0.00,VWS V14.01,2013-01-28 23:31:00,
2013-01-28 18:36:00,29.7,28.7,29.97,East,86,7.8,7.8,96,0.00,,---,0.00,VWS V14.01,2013-01-28 23:36:00,
2013-01-28 18:41:00,29.3,28.6,29.97,ENE,76,7.4,7.4,97,0.00,,---,0.00,VWS V14.01,2013-01-28 23:41:00,
2013-01-28 18:46:00,29.5,28.7,29.97,ESE,107,4.9,4.9,97,0.00,,---,0.00,VWS V14.01,2013-01-28 23:46:00,
2013-01-28 18:51:00,29.5,28.7,29.97,ENE,73,6.9,6.9,97,0.00,,---,0.00,VWS V14.01,2013-01-28 23:51:00,
2013-01-28 18:56:00,29.5,28.7,29.97,NE,40,6.7,6.7,97,0.00,,---,0.00,VWS V14.01,2013-01-28 23:56:00,
2013-01-28 19:01:00,29.7,28.9,29.97,ENE,72,6.7,6.9,97,0.00,,---,0.00,VWS V14.01,2013-01-29 00:01:00,
2013-01-28 19:06:00,29.7,28.9,29.97,East,79,5.8,5.8,97,0.00,,---,0.00,VWS V14.01,2013-01-29 00:06:00,
2013-01-28 19:11:00,29.8,29.1,29.94,East,91,7.4,7.4,97,0.00,,---,0.00,VWS V14.01,2013-01-29 00:11:00,
2013-01-28 19:16:00,30.0,29.3,29.94,East,86,5.8,5.8,97,0.00,,---,0.00,VWS V14.01,2013-01-29 00:16:00,
2013-01-28 19:21:00,30.2,29.5,29.94,East,79,5.4,5.4,97,0.00,,---,0.00,VWS V14.01,2013-01-29 00:21:00,
2013-01-28 19:26:00,30.6,29.8,29.94,ENE,74,5.4,5.4,97,0.00,,---,0.00,VWS V14.01,2013-01-29 00:26:00,
2013-01-28 19:31:00,30.6,29.8,29.94,East,87,5.4,6.3,97,0.00,,---,0.00,VWS V14.01,2013-01-29 00:31:00,
2013-01-28 19:36:00,30.6,29.8,29.94,East,89,6.3,7.4,97,0.00,,---,0.00,VWS V14.01,2013-01-29 00:36:00,
2013-01-28 19:41:00,30.7,30.0,29.94,ENE,63,5.8,7.8,97,0.00,,---,0.00,VWS V14.01,2013-01-29 00:41:00,
2013-01-28 19:46:00,30.9,30.2,29.94,NE,47,4.5,5.8,97,0.00,,---,0.00,VWS V14.01,2013-01-29 00:46:00,
2013-01-28 19:51:00,31.1,30.4,29.94,ENE,66,6.3,6.9,97,0.00,,---,0.00,VWS V14.01,2013-01-29 00:51:00,
2013-01-28 19:56:00,31.3,30.5,29.94,East,82,7.4,7.4,97,0.00,,---,0.00,VWS V14.01,2013-01-29 00:56:00,
2013-01-28 20:01:00,31.5,30.7,29.94,East,92,4.9,6.7,97,0.00,,---,0.00,VWS V14.01,2013-01-29 01:01:00,
2013-01-28 20:05:00,31.6,30.9,29.94,ENE,62,4.0,4.5,97,0.00,,---,0.00,VWS V14.01,2013-01-29 01:05:00,
2013-01-28 20:10:00,31.8,31.1,29.91,NE,43,5.8,5.8,97,0.00,,---,0.00,VWS V14.01,2013-01-29 01:10:00,
2013-01-28 20:15:00,32.0,31.2,29.91,East,87,5.4,5.8,97,0.00,,---,0.00,VWS V14.01,2013-01-29 01:15:00,
2013-01-28 20:20:00,32.2,31.4,29.91,ESE,105,4.9,6.3,97,0.00,,---,0.00,VWS V14.01,2013-01-29 01:20:00,
2013-01-28 20:25:00,32.5,31.8,29.91,East,100,4.9,5.4,97,0.00,,---,0.00,VWS V14.01,2013-01-29 01:25:00,
2013-01-28 20:30:00,32.7,32.0,29.91,ESE,104,5.8,5.8,97,0.00,,---,0.00,VWS V14.01,2013-01-29 01:30:00,
2013-01-28 20:35:00,32.9,32.1,29.91,ESE,106,5.4,5.4,97,0.00,,---,0.00,VWS V14.01,2013-01-29 01:35:00,
2013-01-28 20:40:00,33.1,32.3,29.91,ENE,73,4.9,6.7,97,0.00,,---,0.00,VWS V14.01,2013-01-29 01:40:00,
2013-01-28 20:45:00,33.3,32.5,29.91,East,95,5.8,6.7,97,0.00,,---,0.00,VWS V14.01,2013-01-29 01:45:00,
2013-01-28 20:50:00,33.4,32.7,29.91,ESE,103,4.9,6.3,97,0.00,,---,0.00,VWS V14.01,2013-01-29 01:50:00,
2013-01-28 20:55:00,33.6,32.9,29.91,ESE,110,4.0,6.3,97,0.00,,---,0.00,VWS V14.01,2013-01-29 01:55:00,
2013-01-28 21:00:00,33.6,32.9,29.91,ESE,114,4.0,4.5,97,0.00,,---,0.00,VWS V14.01,2013-01-29 02:00:00,
2013-01-28 21:05:00,33.6,32.9,29.91,ESE,105,6.3,6.7,97,0.00,,---,0.00,VWS V14.01,2013-01-29 02:05:00,
2013-01-28 21:10:00,33.8,33.0,29.91,East,99,4.5,5.4,97,0.00,,---,0.00,VWS V14.01,2013-01-29 02:10:00,
2013-01-28 21:15:00,33.8,33.0,29.91,NNE,26,0.0,0.0,97,0.00,,---,0.00,VWS V14.01,2013-01-29 02:15:00,
2013-01-28 21:20:00,33.8,33.0,29.91,East,88,4.0,4.5,97,0.00,,---,0.00,VWS V14.01,2013-01-29 02:20:00,
2013-01-28 21:25:00,34.0,33.2,29.91,ESE,106,0.0,0.0,97,0.00,,---,0.00,VWS V14.01,2013-01-29 02:25:00,
2013-01-28 21:30:00,34.0,33.2,29.91,ESE,110,4.5,4.9,97,0.00,,---,0.00,VWS V14.01,2013-01-29 02:30:00,
2013-01-28 21:35:00,34.2,33.4,29.91,ESE,111,4.9,6.3,97,0.00,,---,0.00,VWS V14.01,2013-01-29 02:35:00,
2013-01-28 21:40:00,34.2,33.4,29.88,ESE,120,4.0,5.4,97,0.00,,---,0.00,VWS V14.01,2013-01-29 02:40:00,
2013-01-28 21:45:00,34.2,33.4,29.88,ESE,123,4.9,5.4,97,0.00,,---,0.00,VWS V14.01,2013-01-29 02:45:00,
2013-01-28 21:50:00,34.2,33.4,29.88,East,79,3.1,4.0,97,0.00,,---,0.00,VWS V14.01,2013-01-29 02:50:00,
2013-01-28 21:55:00,34.2,33.4,29.88,NE,54,4.9,5.4,97,0.00,,---,0.00,VWS V14.01,2013-01-29 02:55:00,
2013-01-28 22:00:00,34.3,33.6,29.88,ESE,103,4.0,4.5,97,0.00,,---,0.00,VWS V14.01,2013-01-29 03:00:00,
2013-01-28 22:05:00,34.3,33.6,29.88,East,84,4.0,4.5,97,0.00,,---,0.00,VWS V14.01,2013-01-29 03:05:00,
2013-01-28 22:10:00,34.3,33.6,29.88,NNE,17,3.1,4.5,97,0.00,,---,0.00,VWS V14.01,2013-01-29 03:10:00,
2013-01-28 22:15:00,34.3,33.6,29.88,ENE,68,4.5,5.4,97,0.00,,---,0.00,VWS V14.01,2013-01-29 03:15:00,
2013-01-28 22:20:00,34.3,33.6,29.88,ENE,68,2.7,3.6,97,0.00,,---,0.00,VWS V14.01,2013-01-29 03:20:00,
2013-01-28 22:25:00,34.3,33.6,29.88,ENE,68,3.1,4.0,97,0.00,,---,0.00,VWS V14.01,2013-01-29 03:25:00,
2013-01-28 22:30:00,34.3,33.6,29.88,ENE,68,4.0,4.5,97,0.00,,---,0.00,VWS V14.01,2013-01-29 03:30:00,
2013-01-28 22:35:00,34.3,33.6,29.88,ENE,59,3.6,4.0,97,0.00,,---,0.00,VWS V14.01,2013-01-29 03:35:00,
2013-01-28 22:40:00,34.2,33.4,29.85,ENE,59,3.6,4.0,97,0.00,,---,0.00,VWS V14.01,2013-01-29 03:40:00,
2013-01-28 22:45:00,34.2,33.4,29.85,ENE,59,3.6,4.5,97,0.00,,---,0.00,VWS V14.01,2013-01-29 03:45:00,
2013-01-28 22:50:00,34.2,33.4,29.85,ENE,59,0.0,0.0,97,0.00,,---,0.00,VWS V14.01,2013-01-29 03:50:00,
2013-01-28 22:55:00,34.2,33.4,29.85,ENE,59,0.0,0.0,97,0.00,,---,0.00,VWS V14.01,2013-01-29 03:55:00,
2013-01-28 23:00:00,34.3,33.6,29.85,ENE,60,0.0,0.0,97,0.00,,---,0.00,VWS V14.01,2013-01-29 04:00:00,
2013-01-28 23:05:00,34.3,33.6,29.85,ENE,59,0.0,0.0,97,0.00,,---,0.00,VWS V14.01,2013-01-29 04:05:00,
2013-01-28 23:10:00,34.3,33.6,29.88,ENE,59,0.0,0.0,97,0.00,,---,0.00,VWS V14.01,2013-01-29 04:10:00,
2013-01-28 23:15:00,34.3,33.6,29.88,ENE,59,0.0,0.0,97,0.00,,---,0.00,VWS V14.01,2013-01-29 04:15:00,
2013-01-28 23:20:00,34.3,33.6,29.88,ENE,59,0.0,0.0,97,0.00,,---,0.00,VWS V14.01,2013-01-29 04:20:00,
2013-01-28 23:25:00,34.3,33.6,29.85,ENE,59,0.0,0.0,97,0.00,,---,0.00,VWS V14.01,2013-01-29 04:25:00,
2013-01-28 23:30:00,34.3,33.6,29.85,ENE,59,0.0,0.0,97,0.00,,---,0.00,VWS V14.01,2013-01-29 04:30:00,
2013-01-28 23:35:00,34.5,33.8,29.85,ENE,59,0.0,3.1,97,0.00,,---,0.00,VWS V14.01,2013-01-29 04:35:00,
2013-01-28 23:40:00,34.7,33.9,29.85,ENE,60,0.0,0.0,97,0.00,,---,0.00,VWS V14.01,2013-01-29 04:40:00,
2013-01-28 23:45:00,34.5,33.8,29.85,ENE,60,0.0,0.0,97,0.00,,---,0.00,VWS V14.01,2013-01-29 04:45:00,
2013-01-28 23:50:00,34.5,33.8,29.85,ENE,60,0.0,0.0,97,0.00,,---,0.00,VWS V14.01,2013-01-29 04:50:00,
2013-01-28 23:55:00,34.5,33.8,29.85,ENE,60,0.0,0.0,97,0.00,,---,0.00,VWS V14.01,2013-01-29 04:55:00,